Shepherd Bay, Nunavut

7:06 AM CDT on July 28, 2017 (GMT -0500)
Shepherd Bay

Weather History for CYUS - October, 2013

Change the Weather History Date:

Saturday, October 26, 2013

  Actual Average Record
Temperature  
Mean Temperature 8 °F -  
Max Temperature 17 °F -0 °F - ()
Min Temperature -1 °F -16 °F - ()
Degree Days  
Heating Degree Days 57    
Moisture  
Dew Point -    
Average Humidity    
Maximum Humidity    
Minimum Humidity    
Precipitation  
Precipitation 0.00 in 0.01 in - ()
Sea Level Pressure  
Sea Level Pressure 29.82 in    
Wind  
Wind Speed 13 mph ()    
Max Wind Speed 25 mph    
Max Gust Speed 26 mph    
Visibility 9.0 miles    
Events      
T = Trace of Precipitation, MM = Missing Value Source: Averaged Metar Reports

Daily Weather History Graph

Daily Weather History Graph

Search for Another Location

Airport or City:

Trip Planner

Search our weather history database for the weather conditions in past years. The results will help you decide how hot, cold, wet, or windy it might be!

Date:

Astronomy

Oct. 26, 2013 Rise Set
Actual Time 9:07 AM CDT 4:46 PM CDT
Civil Twilight 8:02 AM CDT 5:50 PM CDT
Nautical Twilight 6:54 AM CDT 6:58 PM CDT
Astronomical Twilight 5:47 AM CDT 8:05 PM CDT
Moon 10:42 PM CDT (10/26) 3:52 PM CDT (10/26)
Length of Visible Light 9h 48m
Length of Day
7h 38m
Waning Gibbous, 53% of the Moon is Illuminated
Oct 26
Waning Gibbous
Oct 26
Last Quarter
Nov 3
New
Nov 9
First Quarter
Nov 17
Full

Hourly Weather History & Observations

Time (CDT) Temp. Dew Point Humidity Pressure Visibility Wind Dir Wind Speed Gust Speed Precip Events Conditions
12:00 AM - - N/A% 29.71 in - NW 11.5 mph - N/A   Unknown
12:21 AM - - N/A% 29.69 in - NW 12.7 mph - N/A   Unknown
1:00 AM 17 °F - % 29.72 in - NNW 10.4 mph - -  
1:00 AM - - N/A% 29.72 in - NNW 11.5 mph - N/A   Unknown
1:29 AM - - N/A% 29.70 in - NW 12.7 mph - N/A   Unknown
1:48 AM - - N/A% 29.70 in - NW 12.7 mph - N/A   Unknown
2:00 AM - - N/A% 29.73 in - NNW 13.8 mph - N/A   Unknown
2:59 AM - - N/A% 29.71 in - NW 13.8 mph - N/A   Unknown
3:00 AM - - N/A% 29.73 in - NW 12.7 mph - N/A   Unknown
4:00 AM 12 °F - % 29.73 in 9 mi NW 15.0 mph - -  
4:00 AM - - N/A% 29.73 in - NW 13.8 mph - N/A   Unknown
4:11 AM - - N/A% 29.71 in - NW 13.8 mph - N/A   Unknown
5:00 AM - - N/A% 29.73 in - NW 11.5 mph - N/A   Unknown
6:00 AM - - N/A% 29.74 in - NNW 11.5 mph - N/A   Unknown
6:22 AM - - N/A% 29.72 in - North 10.4 mph 17.3 mph N/A   Unknown
7:00 AM 12 °F - % 29.74 in - NNW 12.7 mph - -  
7:00 AM - - N/A% 29.74 in - NNW 12.7 mph - N/A   Unknown
7:07 AM - - N/A% 29.72 in - NNW 13.8 mph - N/A   Unknown
7:20 AM - - N/A% 29.72 in - NNW 13.8 mph - N/A   Unknown
8:00 AM - - N/A% 29.75 in - NNW 12.7 mph - N/A   Unknown
8:55 AM - - N/A% 29.74 in - North 15.0 mph - N/A   Unknown
9:00 AM - - N/A% 29.76 in - NNW 15.0 mph - N/A   Unknown
10:00 AM -1 °F - % 29.77 in 9 mi NNW 13.8 mph - -  
10:00 AM - - N/A% 29.77 in - NNW 13.8 mph - N/A   Unknown
10:17 AM - - N/A% 29.75 in - North 10.4 mph - N/A   Unknown
11:00 AM - - N/A% 29.78 in - North 12.7 mph - N/A   Unknown
11:06 AM - - N/A% 29.77 in - North 12.7 mph - N/A   Unknown
11:41 AM - - N/A% 29.78 in - North 10.4 mph - N/A   Unknown
12:00 PM - - N/A% 29.81 in - North 10.4 mph - N/A   Unknown
1:00 PM 2 °F - % 29.82 in - NNW 12.7 mph - -  
1:00 PM - - N/A% 29.82 in - NNW 15.0 mph - N/A   Unknown
1:39 PM - - N/A% 29.80 in - NNW 16.1 mph - N/A   Unknown
1:40 PM - - N/A% 29.80 in - NNW 16.1 mph - N/A   Unknown
1:49 PM - - N/A% 29.81 in - NNW 16.1 mph - N/A   Unknown
2:00 PM - - N/A% 29.83 in - NNW 13.8 mph - N/A   Unknown
2:35 PM - - N/A% 29.82 in - NNW 12.7 mph - N/A   Unknown
2:55 PM - - N/A% 29.83 in - NNW 12.7 mph - N/A   Unknown
3:00 PM - - N/A% 29.85 in - NNW 15.0 mph - N/A   Unknown
3:15 PM - - N/A% 29.83 in - NNW 15.0 mph - N/A   Unknown
3:33 PM - - N/A% 29.84 in - NNW 13.8 mph - N/A   Unknown
4:00 PM 13 °F - % 29.87 in 9 mi NNW 23.0 mph - -  
4:00 PM - - N/A% 29.87 in - NNW 25.3 mph - N/A   Unknown
5:00 PM - - N/A% 29.89 in - NNW 21.9 mph - N/A   Unknown
5:28 PM - - N/A% 29.88 in - NNW 15.0 mph 26.5 mph N/A   Unknown
5:48 PM - - N/A% 29.88 in - NNW 23.0 mph - N/A   Unknown
5:49 PM - - N/A% 29.88 in - NNW 24.2 mph - N/A   Unknown
5:54 PM - - N/A% 29.89 in - NNW 17.3 mph 25.3 mph N/A   Unknown
6:00 PM - - N/A% 29.91 in - NNW 13.8 mph 25.3 mph N/A   Unknown
6:23 PM - - N/A% 29.90 in - NNW 13.8 mph - N/A   Unknown
7:00 PM 8 °F - % 29.92 in - NW 15.0 mph - -  
7:00 PM - - N/A% 29.92 in - NNW 15.0 mph - N/A   Unknown
8:00 PM - - N/A% 29.93 in - North 10.4 mph - N/A   Unknown
9:00 PM - - N/A% 29.95 in - NNW 13.8 mph - N/A   Unknown
10:00 PM 2 °F - % 29.94 in 9 mi NNW 16.1 mph - -  
10:00 PM - - N/A% 29.94 in - NW 18.4 mph - N/A   Unknown
10:33 PM - - N/A% 29.92 in - NNW 15.0 mph 23.0 mph N/A   Unknown
10:42 PM - - N/A% 29.92 in - NNW 18.4 mph 25.3 mph N/A   Unknown
10:52 PM - - N/A% 29.92 in - NNW 16.1 mph 24.2 mph N/A   Unknown
10:55 PM - - N/A% 29.92 in - NNW 15.0 mph 21.9 mph N/A   Unknown
10:56 PM - - N/A% 29.92 in - NNW 16.1 mph 21.9 mph N/A   Unknown
10:57 PM - - N/A% 29.92 in - NNW 16.1 mph 21.9 mph N/A   Unknown
10:58 PM - - N/A% 29.92 in - NNW 16.1 mph - N/A   Unknown
11:00 PM - - N/A% 29.95 in - NNW 15.0 mph 20.7 mph N/A   Unknown
11:13 PM - - N/A% 29.92 in - NW 25.3 mph - N/A   Unknown
11:30 PM - - N/A% 29.92 in - NW 23.0 mph - N/A   Unknown
11:53 PM - - N/A% 29.92 in - NW 25.3 mph - N/A   Unknown
11:54 PM - - N/A% 29.92 in - NW 25.3 mph - N/A   Unknown